Date,TemperatureHighF,TemperatureAvgF,TemperatureLowF,DewpointHighF,DewpointAvgF,DewpointLowF,HumidityHigh,HumidityAvg,HumidityLow,PressureMaxIn,PressureMinIn,WindSpeedMaxMPH,WindSpeedAvgMPH,GustSpeedMaxMPH,PrecipitationSumIn
2013-1-1,22.0,16.6,12.0,14.0,12.2,8.0,94,83,69,0.00,40.00,3,1,17,0.00
2013-1-2,25.0,17.6,12.0,14.0,10.8,8.0,87,75,59,0.00,40.00,2,0,16,0.00
2013-1-3,26.0,17.2,12.0,15.0,11.6,8.0,90,79,62,0.00,40.00,3,0,17,0.00
2013-1-4,32.0,21.9,13.0,18.0,14.8,10.0,91,75,56,0.00,40.00,3,0,15,0.00
2013-1-5,28.0,22.9,15.0,20.0,17.2,12.0,89,79,68,0.00,40.00,2,0,16,0.00
2013-1-6,27.0,23.4,20.0,23.0,19.3,16.0,93,84,78,0.00,40.00,3,1,14,0.00
2013-1-7,39.0,29.6,20.0,28.0,21.9,18.0,92,74,46,0.00,40.00,3,1,15,0.00
2013-1-8,50.0,39.0,33.0,31.0,29.3,28.0,84,69,47,0.00,40.00,3,1,13,0.00
2013-1-9,51.0,39.9,28.0,33.0,26.0,16.0,87,61,32,0.00,40.00,22,5,37,0.00
2013-1-10,28.0,24.9,23.0,18.0,10.9,8.0,66,55,49,0.00,40.00,22,7,37,0.00
2013-1-11,27.0,22.6,18.0,21.0,10.6,3.0,94,63,37,0.00,40.00,9,3,27,0.00
2013-1-12,22.0,16.2,10.0,13.0,9.5,5.0,94,75,58,0.00,40.00,3,1,19,0.00
2013-1-13,21.0,14.0,5.0,8.0,3.9,-1.0,80,65,46,0.00,40.00,5,2,25,0.00
2013-1-14,20.0,13.3,5.0,8.0,3.6,1.0,85,66,43,0.00,40.00,4,1,23,0.00
2013-1-15,32.0,23.1,16.0,17.0,10.9,4.0,69,60,48,0.00,40.00,3,1,20,0.00
2013-1-16,35.0,27.2,20.0,22.0,17.2,15.0,81,66,52,0.00,40.00,2,0,17,0.00
2013-1-17,35.0,25.9,20.0,18.0,15.4,12.0,78,65,41,0.00,40.00,2,1,18,0.00
2013-1-18,34.0,24.7,17.0,18.0,15.1,11.0,83,67,48,0.00,40.00,1,0,16,0.00
2013-1-19,30.0,22.6,18.0,17.0,13.8,11.0,73,69,59,0.00,40.00,1,0,16,0.00
2013-1-20,36.0,26.9,17.0,18.0,14.9,10.0,74,61,43,0.00,40.00,3,1,18,0.00
2013-1-21,42.0,28.4,20.0,20.0,15.8,11.0,75,59,36,0.00,40.00,2,0,17,0.00
2013-1-22,40.0,32.5,24.0,24.0,19.6,15.0,72,59,49,0.00,40.00,2,0,17,0.00
2013-1-23,52.0,39.9,30.0,28.0,21.6,14.0,71,51,22,0.00,40.00,13,4,22,0.00
2013-1-24,42.0,34.3,36.0,36.0,18.9,-99.9,96,82,62,0.00,40.00,2,0,12,0.00
2013-1-25,46.0,38.5,32.0,42.0,35.5,31.0,99,90,71,0.00,40.00,4,1,14,0.00
2013-1-26,50.0,42.5,37.0,36.0,28.1,20.0,86,59,35,0.00,40.00,11,5,40,0.00
2013-1-27,36.0,29.1,24.0,25.0,17.7,5.0,96,65,30,0.00,40.00,13,4,36,0.00
2013-1-28,34.0,26.8,18.0,22.0,16.0,11.0,78,64,48,0.00,40.00,4,1,18,0.00
2013-1-29,45.0,39.5,30.0,29.0,26.3,22.0,70,59,50,0.00,40.00,7,3,18,0.00
2013-1-30,50.0,38.6,33.0,33.0,28.0,23.0,79,67,39,0.00,40.00,3,1,13,0.00
2013-1-31,53.0,42.8,30.0,31.0,21.9,8.0,78,47,16,0.00,40.00,9,1,17,0.00
2013-2-1,47.0,39.1,30.0,27.0,21.4,16.0,61,49,37,0.00,40.00,4,1,16,0.00
2013-2-2,42.0,37.8,33.0,30.0,27.0,24.0,70,65,59,0.00,40.00,3,1,14,0.00
2013-2-3,52.0,39.0,32.0,30.0,24.4,18.0,75,59,27,0.00,40.00,5,1,15,0.00
2013-2-4,55.0,45.0,32.0,27.0,21.2,5.0,61,41,13,0.00,40.00,9,2,20,0.00
2013-2-5,56.0,46.3,39.0,23.0,13.8,4.0,44,28,14,0.00,40.00,8,4,22,0.00
2013-2-6,49.0,38.2,27.0,14.0,7.9,3.0,49,29,16,0.00,40.00,6,2,20,0.00
2013-2-7,45.0,39.2,27.0,23.0,3.8,-10.0,61,27,9,0.00,40.00,14,9,34,0.00
2013-2-8,33.0,27.7,23.0,18.0,15.2,11.0,75,59,48,0.00,40.00,8,4,31,0.00
2013-2-9,34.0,27.5,22.0,16.0,13.1,10.0,68,55,38,0.00,40.00,5,2,24,0.00
2013-2-10,36.0,28.9,21.0,18.0,14.2,12.0,72,55,42,0.00,40.00,8,3,21,0.00
2013-2-11,39.0,28.0,23.0,15.0,11.1,6.0,60,50,25,0.00,40.00,4,1,18,0.00
2013-2-12,48.0,34.3,24.0,20.0,15.9,13.0,65,48,27,0.00,40.00,3,1,19,0.00
2013-2-13,51.0,36.3,26.0,22.0,20.0,18.0,73,53,31,0.00,40.00,4,1,18,0.00
2013-2-14,50.0,37.7,29.0,26.0,23.3,21.0,73,56,38,0.00,40.00,5,2,18,0.00
2013-2-15,54.0,41.0,30.0,27.0,23.1,17.0,75,52,23,0.00,40.00,3,1,16,0.00
2013-2-16,52.0,41.5,32.0,27.0,19.3,7.0,61,42,21,0.00,40.00,11,2,22,0.00
2013-2-17,53.0,41.6,35.0,21.0,13.6,6.0,49,32,23,0.00,40.00,6,3,17,0.00
2013-2-18,50.0,35.5,26.0,21.0,15.5,7.0,63,46,20,0.00,40.00,11,2,25,0.00
2013-2-19,37.0,34.1,32.0,30.0,19.3,10.0,93,56,33,0.00,40.00,9,0,26,0.00
2013-2-20,37.0,29.0,25.0,23.0,16.6,5.0,89,64,28,0.00,40.00,0,0,0,0.00
2013-2-21,36.0,27.4,24.0,24.0,18.1,12.0,91,69,40,0.00,40.00,0,0,0,0.00
2013-2-25,52.0,42.7,34.0,22.0,13.2,3.0,53,32,13,0.00,40.00,0,0,0,0.00
2013-2-26,42.0,32.3,24.0,17.0,10.1,-4.0,56,41,14,0.00,40.00,4,1,18,0.00
2013-2-27,52.0,35.7,25.0,14.0,8.8,6.0,50,34,16,0.00,40.00,6,2,17,0.00
2013-2-28,58.0,46.5,35.0,30.0,20.8,11.0,53,36,24,0.00,40.00,7,3,20,0.00
2013-3-1,61.0,47.8,37.0,30.0,27.1,24.0,68,48,26,0.00,40.00,5,2,14,0.00
2013-3-2,63.0,49.5,41.0,29.0,24.1,15.0,57,39,15,0.00,40.00,8,3,18,0.00
2013-3-3,46.0,41.7,38.0,40.0,35.5,31.0,91,79,56,0.00,40.00,6,3,18,0.00
2013-3-4,38.0,36.0,33.0,35.0,31.8,28.0,88,84,78,0.00,40.00,3,1,21,0.00
2013-3-5,56.0,54.7,54.0,24.0,23.0,22.0,31,29,27,0.00,40.00,12,8,26,0.00
2013-3-7,32.0,29.4,27.0,27.0,26.3,24.0,92,88,80,0.00,40.00,2,1,13,0.00
2013-3-11,62.0,54.3,46.0,23.0,14.6,9.0,40,21,13,0.00,40.00,5,2,14,0.00
2013-3-12,63.0,50.8,40.0,24.0,18.0,14.0,39,28,16,0.00,40.00,3,1,13,0.00
2013-3-13,72.0,62.1,43.0,32.0,23.3,14.0,47,25,11,0.00,40.00,9,4,20,0.00
2013-3-14,59.0,55.2,51.0,30.0,21.6,12.0,40,27,18,0.00,40.00,4,2,13,0.00
2013-3-15,66.0,58.2,53.0,24.0,21.7,15.0,30,24,18,0.00,40.00,9,6,19,0.00
2013-3-16,58.0,49.5,42.0,26.0,20.7,15.0,48,33,21,0.00,40.00,14,6,33,0.00
2013-3-17,59.0,48.8,43.0,20.0,12.3,2.0,34,24,11,0.00,40.00,9,5,25,0.00
2013-3-18,60.0,51.2,40.0,26.0,18.1,8.0,40,28,15,0.00,40.00,7,3,19,0.00
2013-3-19,46.0,45.3,44.0,25.0,21.2,19.0,46,38,33,0.00,40.00,6,4,18,0.00
2013-3-21,54.0,47.7,40.0,28.0,21.9,14.0,53,37,22,0.00,40.00,11,6,21,0.00
2013-3-22,49.0,38.2,28.0,15.0,7.0,-5.0,50,30,10,0.00,40.00,7,3,21,0.00
2013-3-23,45.0,32.1,25.0,13.0,8.2,5.0,45,36,26,0.00,40.00,5,2,17,0.00
2013-3-25,64.0,54.7,45.0,22.0,13.2,-1.0,35,21,11,0.00,40.00,9,5,28,0.00
2013-3-26,56.0,51.5,44.0,31.0,25.2,0.0,42,36,13,0.00,40.00,9,6,28,0.00
2013-3-27,60.0,54.7,48.0,34.0,29.6,26.0,59,40,27,0.00,40.00,11,6,31,0.00
2013-3-28,59.0,49.2,44.0,37.0,31.5,24.0,74,52,28,0.00,40.00,13,7,28,0.00
2013-3-29,65.0,48.5,36.0,36.0,31.8,27.0,83,56,26,0.00,40.00,7,3,18,0.00
2013-3-30,64.0,52.2,44.0,37.0,31.8,28.0,59,47,26,0.00,40.00,10,3,26,0.00
2013-3-31,53.0,49.6,42.0,37.0,35.4,35.0,81,59,50,0.00,40.00,10,8,20,0.00
2013-4-8,41.0,37.6,32.0,28.0,19.8,13.0,81,50,33,0.00,40.00,11,7,25,0.00
2013-4-9,52.0,42.4,32.0,19.0,13.4,9.0,57,34,19,0.00,40.00,8,4,22,0.00
2013-4-10,65.0,55.4,37.0,33.0,26.7,17.0,47,34,27,0.00,40.00,7,4,21,0.00
2013-4-11,59.0,52.8,42.0,39.0,31.9,20.0,84,48,27,0.00,40.00,8,3,19,0.00
2013-4-12,61.0,51.9,40.0,34.0,27.2,22.0,51,39,28,0.00,40.00,9,4,20,0.00
2013-4-13,54.0,53.5,53.0,26.0,22.5,19.0,35,30,25,0.00,40.00,7,6,16,0.00
2013-4-15,47.0,37.3,29.0,29.0,23.5,16.0,94,64,29,0.00,40.00,9,6,28,0.00
2013-4-16,34.0,30.2,28.0,27.0,21.3,9.0,93,72,34,0.00,40.00,9,5,34,0.00
2013-4-17,45.0,33.2,27.0,22.0,15.6,9.0,73,52,23,0.00,40.00,6,3,19,0.00
2013-4-18,55.0,52.0,48.0,15.0,13.2,12.0,26,21,18,0.00,40.00,5,4,16,0.00
2013-4-19,62.0,53.3,39.0,30.0,23.9,16.0,45,32,22,0.00,40.00,10,6,26,0.00
2013-4-20,62.0,53.1,41.0,31.0,26.7,14.0,57,38,16,0.00,40.00,6,4,15,0.00
2013-4-21,71.0,56.9,46.0,27.0,23.1,18.0,46,29,17,0.00,40.00,5,3,13,0.00
2013-4-22,69.0,60.1,47.0,21.0,16.9,11.0,23,19,14,0.00,40.00,10,6,24,0.00
2013-4-23,60.0,47.9,37.0,14.0,8.4,1.0,33,21,13,0.00,40.00,5,3,18,0.00
2013-4-24,63.0,52.8,41.0,17.0,6.3,0.0,28,16,11,0.00,40.00,8,4,18,0.00
2013-4-25,69.0,55.4,40.0,26.0,15.4,3.0,31,21,12,0.00,40.00,11,4,21,0.00
2013-4-26,73.0,59.7,46.0,34.0,25.5,14.0,44,29,11,0.00,40.00,10,4,23,0.00
2013-4-27,75.0,59.2,47.0,38.0,32.8,23.0,55,39,15,0.00,40.00,8,3,18,0.00
2013-4-30,59.0,58.2,56.0,24.0,23.0,22.0,28,26,25,0.00,40.00,5,5,15,0.00
2013-5-2,69.0,59.1,48.0,14.0,11.6,9.0,22,16,11,0.00,40.00,4,3,16,0.00
2013-5-3,75.0,63.7,50.0,32.0,17.9,8.0,30,18,10,0.00,40.00,11,4,25,0.00
2013-5-4,61.0,54.9,48.0,29.0,20.1,9.0,47,27,13,0.00,40.00,13,3,28,0.00
2013-5-5,58.0,50.4,41.0,42.0,38.2,27.0,92,65,44,0.00,40.00,7,3,20,0.00
2013-5-6,50.0,45.6,42.0,41.0,37.6,35.0,88,74,60,0.00,40.00,11,6,30,0.00
2013-5-7,47.0,43.5,40.0,42.0,38.5,35.0,92,83,72,0.00,40.00,9,4,23,0.00
2013-5-8,63.0,51.1,43.0,47.0,40.8,34.0,94,71,36,0.00,40.00,10,3,21,0.00
2013-5-9,69.0,57.2,46.0,44.0,40.9,36.0,76,57,33,0.00,40.00,7,4,18,0.00
2013-5-15,69.0,61.3,55.0,41.0,24.2,13.0,42,26,13,0.00,40.00,10,5,22,0.00
2013-5-16,59.0,49.7,48.0,37.0,13.4,-99.9,61,46,29,0.00,40.00,10,5,28,0.00
2013-5-17,63.0,53.6,42.0,36.0,20.4,-99.9,68,36,10,0.00,40.00,9,5,28,0.00
2013-5-18,65.0,53.2,39.0,32.0,26.0,13.0,53,36,20,0.00,40.00,12,5,25,0.00
2013-5-19,66.0,51.9,43.0,36.0,32.4,27.0,70,51,23,0.00,40.00,8,3,23,0.00
2013-5-21,71.0,65.1,56.0,29.0,22.3,12.0,25,20,12,0.00,40.00,14,9,37,0.00
2013-5-22,58.0,51.4,45.0,25.0,13.6,-1.0,44,23,11,0.00,40.00,12,8,30,0.00
2013-5-23,56.0,47.5,38.0,23.0,17.7,8.0,49,31,16,0.00,40.00,12,5,27,0.00
2013-5-24,70.0,54.1,39.0,30.0,22.3,9.0,52,31,10,0.00,40.00,13,5,28,0.00
2013-5-25,66.0,55.8,48.0,33.0,25.2,13.0,46,31,18,0.00,40.00,11,7,30,0.00
2013-5-26,66.0,56.7,47.0,29.0,24.7,20.0,41,29,21,0.00,40.00,10,6,26,0.00
2013-5-27,63.0,54.0,44.0,41.0,32.4,19.0,56,45,26,0.00,40.00,11,5,25,0.00
2013-5-28,60.0,53.7,49.0,41.0,36.0,30.0,72,53,32,0.00,40.00,11,6,24,0.00
2013-5-29,66.0,58.7,52.0,42.0,31.8,26.0,62,37,24,0.00,40.00,13,7,34,0.00
2013-5-30,72.0,59.8,46.0,39.0,30.6,16.0,59,38,12,0.00,40.00,10,5,24,0.00
2013-5-31,55.0,54.0,53.0,32.0,31.5,31.0,43,42,42,0.00,40.00,2,2,8,0.00
2013-6-4,84.0,76.2,62.0,45.0,35.6,26.0,35,25,13,0.00,40.00,9,5,20,0.00
2013-6-5,87.0,78.9,62.0,41.0,27.7,20.0,32,17,9,0.00,40.00,7,3,13,0.00
2013-6-7,88.0,76.4,62.0,47.0,33.9,19.0,40,24,10,0.00,40.00,11,4,22,0.00
2013-6-8,90.0,77.1,63.0,41.0,35.1,23.0,32,23,14,0.00,40.00,5,3,15,0.00
2013-6-13,72.0,67.3,57.0,25.0,12.7,-4.0,27,13,6,0.00,40.00,10,-77,33,0.00
2013-6-14,71.0,59.8,46.0,28.0,23.8,16.0,44,26,18,0.00,40.00,7,-66,14,0.00
2013-6-15,77.0,64.7,51.0,34.0,24.5,18.0,38,23,13,0.00,40.00,14,-20,26,0.00
2013-6-28,95.0,85.5,76.0,54.0,42.8,35.0,46,24,13,0.00,40.00,9,4,23,0.00
2013-6-29,91.0,84.3,70.0,48.0,39.7,35.0,45,22,15,0.00,40.00,12,7,22,0.00
2013-6-30,93.0,81.0,67.0,51.0,44.8,38.0,43,29,15,0.00,40.00,10,5,21,0.00
2013-7-1,94.0,82.9,69.0,53.0,41.9,34.0,40,25,12,0.00,40.00,17,5,32,0.00
2013-7-2,96.0,82.4,72.0,49.0,44.3,39.0,38,28,14,0.00,40.00,13,5,28,0.00
2013-7-3,92.0,79.1,63.0,54.0,46.3,40.0,62,34,17,0.00,40.00,9,-74,20,0.00
2013-7-4,91.0,81.2,68.0,52.0,48.5,44.0,49,33,22,0.00,40.00,13,-59,23,0.00
2013-7-5,89.0,82.5,74.0,52.0,37.7,22.0,44,24,10,0.00,40.00,11,-40,21,0.00
2013-7-6,87.0,77.6,64.0,35.0,29.5,19.0,26,18,12,0.00,40.00,10,-43,20,0.00
2013-7-7,87.0,79.1,67.0,41.0,31.5,25.0,31,19,10,0.00,40.00,12,-102,31,0.00
2013-7-8,87.0,75.6,67.0,35.0,26.3,-99.9,24,17,10,0.00,40.00,10,-38,23,0.00
2013-7-9,84.0,76.3,64.0,37.0,29.9,21.0,25,18,13,0.00,40.00,16,-44,34,0.00
2013-7-10,84.0,77.5,65.0,34.0,31.5,30.0,32,19,14,0.00,40.00,9,-44,27,0.00
2013-7-15,86.0,76.3,64.0,43.0,39.1,34.0,36,27,17,0.00,40.00,11,-39,24,0.00
2013-7-16,84.0,74.8,66.0,39.0,34.1,27.0,33,24,14,0.00,40.00,12,-27,28,0.00
2013-7-17,86.0,78.1,65.0,38.0,29.6,24.0,25,18,11,0.00,40.00,12,-44,26,0.00
2013-7-18,93.0,85.2,72.0,41.0,34.6,24.0,31,18,9,0.00,40.00,9,-30,22,0.00
2013-7-19,97.0,85.4,66.0,46.0,36.8,27.0,34,19,9,0.00,40.00,14,-9,25,0.00
2013-7-20,99.0,86.9,73.0,47.0,34.4,-99.9,29,17,8,0.00,40.00,16,-12,26,0.00
2013-7-21,97.0,87.2,68.0,49.0,40.4,32.0,37,21,11,0.00,40.00,11,-17,29,0.00
2013-7-22,92.0,83.2,71.0,46.0,42.6,37.0,34,24,18,0.00,40.00,12,8,28,0.00
2013-7-23,83.0,74.7,68.0,50.0,45.0,40.0,50,35,22,0.00,40.00,10,-42,18,0.00
2013-7-24,84.0,73.8,62.0,49.0,46.2,44.0,58,39,25,0.00,40.00,12,-69,28,0.00
2013-7-25,89.0,77.2,66.0,55.0,48.2,44.0,66,38,21,0.00,40.00,19,-12,39,0.00
2013-7-26,87.0,73.0,60.0,56.0,50.2,44.0,77,49,26,0.00,40.00,11,-14,26,0.00
2013-7-27,87.0,79.7,70.0,47.0,40.8,34.0,42,27,15,0.00,40.00,11,-61,25,0.00
2013-7-28,85.0,77.1,69.0,46.0,38.5,33.0,40,26,16,0.00,40.00,9,5,23,0.00
2013-7-29,84.0,75.9,62.0,41.0,33.1,27.0,37,22,12,0.00,40.00,9,-16,23,0.00
2013-7-30,84.0,76.3,62.0,41.0,36.1,30.0,40,24,15,0.00,40.00,14,8,28,0.00
2013-7-31,84.0,73.9,68.0,41.0,35.0,28.0,33,25,13,0.00,40.00,12,-28,26,0.00
2013-8-1,78.0,70.5,61.0,38.0,24.4,16.0,35,19,10,0.00,40.00,10,-56,32,0.00
2013-8-2,79.0,68.4,48.0,34.0,24.0,18.0,33,20,11,0.00,40.00,14,-5,27,0.00
2013-8-3,82.0,72.7,54.0,40.0,33.4,25.0,40,25,14,0.00,40.00,13,6,26,0.00
2013-8-4,86.0,75.4,59.0,38.0,33.9,25.0,39,23,12,0.00,40.00,12,-49,26,0.00
2013-8-5,86.0,77.0,67.0,36.0,29.4,22.0,30,19,10,0.00,40.00,15,-60,32,0.00
2013-8-6,87.0,76.1,69.0,39.0,33.4,23.0,30,23,10,0.00,40.00,13,-17,23,0.00
2013-8-7,77.0,69.1,63.0,40.0,34.7,29.0,42,28,18,0.00,40.00,14,-15,36,0.00
2013-8-8,78.0,68.2,58.0,40.0,35.2,24.0,44,31,14,0.00,40.00,12,-15,25,0.00
2013-8-9,77.0,65.3,55.0,41.0,36.8,25.0,53,37,15,0.00,40.00,15,-5,29,0.00
2013-8-10,77.0,69.9,59.0,40.0,30.3,22.0,39,24,15,0.00,40.00,13,-31,27,0.00
2013-8-11,77.0,67.8,56.0,39.0,34.8,28.0,43,30,19,0.00,40.00,15,-7,29,0.00
2013-8-12,81.0,72.5,58.0,39.0,33.0,27.0,42,25,15,0.00,40.00,13,-7,27,0.00
2013-8-13,87.0,77.7,64.0,35.0,29.4,23.0,28,18,11,0.00,40.00,10,6,24,0.00
2013-8-14,86.0,74.5,59.0,36.0,28.1,19.0,27,19,9,0.00,40.00,13,-25,26,0.00
2013-8-15,87.0,70.9,70.0,34.0,11.7,-99.9,26,13,7,0.00,40.00,11,8,26,0.00
2013-8-16,85.0,74.7,65.0,34.0,20.4,-99.9,23,15,10,0.00,40.00,12,-12,29,0.00
2013-8-17,86.0,78.0,63.0,39.0,32.3,-99.9,31,20,15,0.00,40.00,11,-19,21,0.00
2013-8-18,83.0,73.7,63.0,43.0,38.7,36.0,39,29,19,0.00,40.00,4,2,11,0.00
2013-8-20,86.0,75.8,69.0,46.0,41.9,35.0,42,31,17,0.00,40.00,12,6,25,0.00
2013-8-21,82.0,68.8,60.0,58.0,49.0,43.0,64,50,26,0.00,40.00,6,-10,19,2.00
2013-8-22,80.0,70.3,56.0,54.0,40.5,31.0,77,38,17,0.00,40.00,12,4,26,0.00
2013-8-23,79.0,70.3,58.0,38.0,32.8,27.0,39,26,15,0.00,40.00,10,6,24,0.00
2013-8-24,79.0,70.7,59.0,38.0,28.1,-99.9,37,22,13,0.00,40.00,13,6,26,0.00
2013-8-25,76.0,67.6,59.0,39.0,33.5,26.0,40,29,18,0.00,40.00,11,6,27,0.00
2013-8-26,79.0,68.9,57.0,41.0,33.1,24.0,43,28,13,0.00,40.00,12,5,31,0.00
2013-8-27,78.0,64.5,57.0,39.0,34.5,30.0,44,33,22,0.00,40.00,5,2,13,0.00
2013-8-28,81.0,74.7,66.0,48.0,43.3,38.0,53,33,24,0.00,40.00,15,6,31,0.00
2013-8-29,83.0,73.7,65.0,40.0,35.2,24.0,38,26,12,0.00,40.00,11,-43,21,0.00
2013-8-30,69.0,67.8,67.0,35.0,33.8,29.0,30,28,24,0.00,40.00,3,2,10,0.00
2013-9-4,84.0,77.6,70.0,47.0,41.5,38.0,40,28,21,0.00,40.00,12,7,29,0.00
2013-9-5,81.0,71.7,65.0,41.0,35.5,28.0,39,28,16,0.00,40.00,12,6,29,0.00
2013-9-6,78.0,69.5,62.0,39.0,36.5,34.0,38,30,22,0.00,40.00,10,-14,23,0.00
2013-9-7,83.0,70.2,56.0,39.0,33.8,28.0,43,28,14,0.00,40.00,8,-21,18,0.00
2013-9-8,83.0,76.5,61.0,34.0,30.1,27.0,33,19,14,0.00,40.00,11,7,22,0.00
2013-9-9,84.0,75.1,57.0,34.0,30.3,28.0,38,20,14,0.00,40.00,7,4,17,0.00
2013-9-10,82.0,73.1,55.0,36.0,30.1,23.0,36,21,12,0.00,40.00,7,-17,13,0.00
2013-9-11,84.0,71.9,59.0,39.0,33.7,30.0,38,26,14,0.00,40.00,10,-18,26,0.00
2013-9-12,81.0,72.8,62.0,53.0,42.9,35.0,69,37,23,0.00,40.00,13,6,27,1.00
2013-9-13,79.0,70.2,57.0,51.0,46.7,41.0,72,45,28,0.00,40.00,8,-15,18,0.00
2013-9-14,84.0,71.2,59.0,47.0,40.6,-99.9,56,35,21,0.00,40.00,10,4,20,0.00
2013-9-15,83.0,72.0,61.0,43.0,35.7,27.0,49,29,13,0.00,40.00,14,-58,35,0.00
2013-9-16,84.0,72.6,64.0,41.0,31.9,26.0,42,24,13,0.00,40.00,12,6,29,0.00
2013-9-17,73.0,63.4,57.0,34.0,27.4,19.0,32,26,15,0.00,40.00,12,-13,29,0.00
2013-9-18,60.0,50.7,45.0,36.0,28.8,22.0,71,45,25,0.00,40.00,7,3,18,0.00
2013-9-19,74.0,61.2,44.0,30.0,25.1,21.0,49,27,14,0.00,40.00,4,2,12,0.00
2013-9-20,76.0,66.3,55.0,32.0,24.8,20.0,37,22,12,0.00,40.00,18,8,38,0.00
2013-9-21,64.0,52.6,41.0,41.0,30.2,-99.9,80,47,21,0.00,40.00,17,-6,36,3.00
2013-9-22,62.0,51.0,39.0,39.0,34.3,27.0,80,55,27,0.00,40.00,10,4,25,0.00
2013-9-23,74.0,58.3,44.0,39.0,33.6,18.0,74,45,12,0.00,40.00,12,3,27,0.00
2013-9-24,72.0,66.0,60.0,33.0,25.4,15.0,26,22,16,0.00,40.00,15,9,37,0.00
2013-9-25,53.0,46.5,37.0,33.0,25.0,18.0,81,46,27,0.00,40.00,12,-23,25,0.00
2013-9-26,50.0,41.7,35.0,32.0,26.3,20.0,81,56,33,0.00,40.00,7,-9,18,0.00
2013-9-27,57.0,47.0,34.0,27.0,23.0,18.0,70,41,22,0.00,40.00,5,2,14,0.00
2013-9-28,73.0,58.2,42.0,30.0,23.4,-99.9,45,28,19,0.00,40.00,9,3,25,0.00
2013-9-29,68.0,61.2,57.0,29.0,26.2,22.0,33,26,21,0.00,40.00,15,9,40,0.00
2013-9-30,67.0,61.1,57.0,37.0,30.2,16.0,45,32,18,0.00,40.00,11,7,31,0.00
2013-10-1,67.0,60.5,55.0,40.0,31.0,21.0,50,34,17,0.00,40.00,10,6,19,0.00
2013-10-2,61.0,52.0,46.0,31.0,21.5,9.0,50,33,14,0.00,40.00,9,-28,23,0.00
2013-10-3,52.0,44.2,36.0,23.0,17.7,9.0,54,36,19,0.00,40.00,10,-11,27,0.00
2013-10-4,54.0,43.3,35.0,20.0,16.5,13.0,53,35,22,0.00,40.00,9,-29,22,0.00
2013-10-5,62.0,48.4,33.0,17.0,14.1,11.0,47,27,14,0.00,40.00,4,2,15,0.00
2013-10-6,72.0,59.7,40.0,21.0,17.8,13.0,34,20,12,0.00,40.00,11,3,24,0.00
2013-10-7,71.0,62.9,50.0,20.0,14.7,10.0,23,16,11,0.00,40.00,10,5,25,0.00
2013-10-8,62.0,53.0,43.0,22.0,17.8,8.0,38,25,15,0.00,40.00,10,5,20,0.00
2013-10-9,50.0,43.6,37.0,37.0,30.0,18.0,88,61,28,0.00,40.00,7,-9,24,1.00
2013-10-10,59.0,49.1,36.0,34.0,30.1,25.0,81,51,27,0.00,40.00,10,5,22,0.00
2013-10-11,61.0,51.2,37.0,34.0,30.2,25.0,72,46,29,0.00,40.00,9,-14,19,0.00
2013-10-12,64.0,54.3,40.0,30.0,24.8,19.0,55,34,19,0.00,40.00,7,4,19,0.00
2013-10-13,50.0,43.1,38.0,41.0,31.5,24.0,93,65,44,0.00,40.00,6,2,15,0.00
2013-10-14,55.0,46.8,34.0,33.0,27.1,24.0,78,48,30,0.00,40.00,6,2,16,0.00
2013-10-15,54.0,45.0,33.0,27.0,21.8,15.0,69,42,26,0.00,40.00,7,-12,20,0.00
2013-10-16,66.0,51.6,34.0,28.0,21.6,16.0,49,32,15,0.00,40.00,9,3,20,0.00
2013-10-17,63.0,52.8,39.0,27.0,21.3,14.0,59,32,15,0.00,40.00,6,2,15,0.00
2013-10-18,61.0,52.4,38.0,23.0,19.1,17.0,47,27,17,0.00,40.00,3,1,11,0.00
2013-10-21,68.0,56.9,44.0,23.0,18.2,15.0,34,23,14,0.00,40.00,5,2,14,0.00
2013-10-22,70.0,57.2,44.0,23.0,19.1,17.0,36,23,13,0.00,40.00,7,2,14,0.00
2013-10-23,70.0,57.3,43.0,22.0,17.8,15.0,37,22,13,0.00,40.00,7,2,16,0.00
2013-10-24,70.0,60.3,46.0,22.0,17.8,13.0,28,20,11,0.00,40.00,10,3,21,0.00
2013-10-25,70.0,61.4,43.0,22.0,15.0,9.0,33,17,10,0.00,40.00,7,2,15,0.00
2013-10-26,67.0,55.9,43.0,19.0,12.5,-99.9,29,19,13,0.00,40.00,4,1,11,0.00
2013-10-27,66.0,55.7,44.0,25.0,18.7,15.0,43,24,15,0.00,40.00,18,-15,37,0.00
2013-10-28,42.0,36.0,30.0,35.0,29.9,25.0,99,80,53,0.00,40.00,10,-11,28,2.00
2013-10-29,41.0,39.1,37.0,34.0,29.2,26.0,84,68,57,0.00,40.00,7,3,22,0.00
2013-10-31,56.0,48.1,33.0,31.0,29.2,26.0,89,50,32,0.00,40.00,3,1,15,0.00
2013-11-1,58.0,47.9,34.0,30.0,28.2,26.0,73,48,31,0.00,40.00,3,1,11,0.00
2013-11-2,63.0,58.1,41.0,29.0,20.7,14.0,61,25,15,0.00,40.00,7,5,22,0.00
2013-11-3,46.0,39.5,33.0,30.0,21.5,11.0,75,50,32,0.00,40.00,6,-9,21,0.00
2013-11-4,42.0,36.0,30.0,17.0,14.2,12.0,51,40,34,0.00,40.00,7,3,19,0.00
2013-11-5,53.0,40.9,27.0,18.0,14.2,11.0,60,35,20,0.00,40.00,4,1,16,0.00
2013-11-6,60.0,46.4,34.0,24.0,19.8,14.0,53,35,22,0.00,40.00,3,1,15,0.00
2013-11-7,47.0,44.7,44.0,25.0,23.8,21.0,46,43,37,0.00,40.00,4,0,13,0.00
2013-11-8,66.0,58.2,50.0,22.0,18.3,13.0,32,22,14,0.00,40.00,4,2,16,0.00
2013-11-9,60.0,53.7,39.0,25.0,20.4,-99.9,48,29,23,0.00,40.00,3,1,11,0.00
2013-11-10,63.0,51.2,40.0,24.0,19.0,11.0,46,30,15,0.00,40.00,3,1,13,0.00
2013-11-11,51.0,44.2,41.0,12.0,10.6,9.0,29,25,20,0.00,40.00,1,0,9,0.00
2013-11-12,62.0,56.8,46.0,26.0,21.4,16.0,34,25,20,0.00,40.00,3,2,11,0.00
2013-11-13,64.0,55.3,42.0,24.0,21.6,18.0,41,27,20,0.00,40.00,5,2,17,0.00
2013-11-14,64.0,55.4,49.0,23.0,20.9,18.0,35,26,17,0.00,40.00,12,6,25,0.00
2013-11-15,42.0,38.4,35.0,29.0,27.5,27.0,72,65,56,0.00,40.00,6,2,17,0.00
2013-11-16,55.0,46.0,37.0,28.0,21.7,-99.9,70,41,25,0.00,40.00,10,4,28,0.00
2013-11-17,54.0,44.6,33.0,28.0,25.4,22.0,72,49,29,0.00,40.00,2,1,13,0.00
2013-11-18,55.0,46.5,35.0,32.0,26.3,21.0,59,46,34,0.00,40.00,10,4,30,0.00
2013-11-19,54.0,47.7,43.0,37.0,31.3,26.0,75,54,41,0.00,40.00,10,4,20,0.00
2013-11-20,49.0,42.9,37.0,38.0,36.1,34.0,95,78,57,0.00,40.00,6,2,19,0.00
2013-11-21,36.0,27.6,25.0,34.0,23.4,18.0,93,85,67,0.00,40.00,5,0,19,0.00
2013-11-22,36.0,30.2,23.0,20.0,11.3,4.0,72,46,31,0.00,40.00,7,2,19,0.00
2013-11-23,40.0,34.0,29.0,18.0,8.1,-99.9,50,36,25,0.00,40.00,4,2,17,0.00
2013-11-24,45.0,34.4,24.0,20.0,13.6,10.0,66,44,26,0.00,40.00,3,1,18,0.00
2013-11-25,49.0,37.2,26.0,23.0,18.5,15.0,67,48,27,0.00,40.00,3,1,16,0.00
2013-11-26,47.0,38.7,29.0,25.0,22.2,20.0,69,52,35,0.00,40.00,2,0,13,0.00
2013-11-27,49.0,40.6,35.0,27.0,25.1,23.0,64,54,42,0.00,40.00,3,1,13,0.00
2013-11-28,47.0,39.3,33.0,29.0,27.2,25.0,77,62,47,0.00,40.00,5,2,15,0.00
2013-11-29,50.0,40.4,30.0,29.0,27.3,25.0,87,60,40,0.00,40.00,3,1,14,0.00
2013-11-30,36.0,34.1,33.0,27.0,25.5,25.0,73,71,65,0.00,40.00,1,0,13,0.00
2013-12-2,61.0,54.4,48.0,30.0,18.6,10.0,50,27,15,0.00,40.00,10,7,31,0.00
2013-12-3,25.0,19.3,15.0,23.0,16.2,10.0,93,88,78,0.00,40.00,9,3,26,0.00
2013-12-4,19.0,16.9,14.0,14.0,12.6,10.0,89,83,74,0.00,40.00,3,1,24,0.00
2013-12-5,23.0,17.4,14.0,13.0,11.2,9.0,87,77,60,0.00,40.00,3,1,18,0.00
2013-12-6,32.0,25.6,15.0,21.0,9.3,-2.0,88,54,22,0.00,40.00,12,4,18,0.00
2013-12-7,26.0,21.8,14.0,22.0,10.5,-99.9,89,65,41,0.00,40.00,13,5,28,0.00
2013-12-8,13.0,9.5,6.0,6.0,2.9,0.0,78,74,71,0.00,40.00,4,1,11,0.00
2013-12-9,20.0,14.4,10.0,8.0,4.5,1.0,71,65,55,0.00,40.00,3,1,13,0.00
2013-12-10,30.0,18.9,9.0,13.0,8.8,2.0,75,65,41,0.00,40.00,2,0,17,0.00
2013-12-11,29.0,20.6,14.0,15.0,11.1,7.0,77,66,53,0.00,40.00,3,0,13,0.00
2013-12-12,33.0,23.2,15.0,16.0,12.5,8.0,78,64,48,0.00,40.00,3,0,17,0.00
2013-12-13,40.0,30.5,22.0,16.0,13.3,10.0,65,49,30,0.00,40.00,3,1,15,0.00
2013-12-14,39.0,28.0,21.0,20.0,14.6,-99.9,72,60,44,0.00,40.00,2,0,10,0.00
2013-12-15,35.0,28.3,22.0,20.0,17.9,15.0,75,65,54,0.00,40.00,2,0,11,0.00
2013-12-16,41.0,33.0,27.0,23.0,19.8,16.0,68,59,46,0.00,40.00,2,0,10,0.00
2013-12-17,38.0,36.2,35.0,22.0,20.5,18.0,57,53,47,0.00,40.00,3,1,9,0.00
2013-12-18,56.0,49.2,39.0,30.0,23.4,20.0,46,37,25,0.00,40.00,9,4,17,0.00
2013-12-19,42.0,29.9,23.0,28.0,21.1,12.0,90,70,34,0.00,40.00,10,4,19,0.00
2013-12-20,32.0,23.7,15.0,18.0,12.0,6.0,78,62,38,0.00,40.00,7,1,15,0.00
2013-12-21,47.0,37.5,30.0,27.0,21.6,-99.9,74,55,43,0.00,40.00,5,2,13,0.00
2013-12-22,46.0,37.0,29.0,28.0,25.4,22.0,80,64,49,0.00,40.00,4,1,8,0.00
2013-12-23,49.0,39.7,31.0,29.0,26.2,22.0,82,60,41,0.00,40.00,3,0,10,0.00
2013-12-24,49.0,40.2,33.0,29.0,25.4,21.0,74,57,39,0.00,40.00,3,1,10,0.00
2013-12-25,42.0,34.5,28.0,29.0,26.3,22.0,88,72,58,0.00,40.00,2,0,12,0.00
2013-12-26,43.0,33.8,25.0,26.0,21.9,17.0,83,63,37,0.00,40.00,3,1,10,0.00
2013-12-27,44.0,38.1,30.0,24.0,18.6,13.0,57,46,32,0.00,40.00,5,1,7,0.00
2013-12-28,45.0,37.0,32.0,20.0,13.1,-99.9,59,40,26,0.00,40.00,10,3,19,0.00
2013-12-29,40.0,30.9,23.0,22.0,18.9,16.0,74,61,45,0.00,40.00,3,1,9,0.00
2013-12-30,42.0,38.7,35.0,22.0,19.1,15.0,57,45,36,0.00,40.00,3,1,11,0.00
2013-12-31,52.0,42.1,34.0,25.0,16.9,11.0,55,37,23,0.00,40.00,3,1,10,0.00
2014-1-1,48.0,40.1,31.0,20.0,15.7,11.0,50,37,29,0.00,40.00,3,1,12,0.00
2014-1-2,49.0,40.0,28.0,23.0,20.4,18.0,65,46,33,0.00,40.00,2,0,12,0.00